Pacific - Georgia Basin: Past 24 Hour Conditions

 

Vancouver Int'l Airport

10:00 AM PDT 05 July 2015
Disclaimer

This table is a summary of hourly weather conditions for the past 24 hours.
Please note that these observations might not always be representative of weather conditions over their associated marine area.

Date / Time
(PDT)
Wind(knots) Conditions Visibility(km) Pressure(kPa) Air tempC) Relative humidity(%) Dew pointC) Humidex
05 July 2015
10:00 NW 9 Mostly Cloudy 32 101.2 20 70 14 *
9:00 NW 9 Mostly Cloudy 32 101.2 19 78 15 *
8:00 WNW 6 Mostly Cloudy 32 101.2 18 80 15 *
7:00 NW 6 Mostly Cloudy 32 101.1 18 81 15 *
6:00 NW 8 Cloudy 24 101.1 18 78 14 *
5:00 WNW 10 Mostly Cloudy 24 101.0 18 78 14 *
4:00 NW 9 Partly Cloudy 24 101.0 18 81 14 *
3:00 WNW 10 Partly Cloudy 24 101.0 18 83 15 *
2:00 NW 6 Clear 24 101.0 17 88 15 *
1:00 WNW 8 Mainly Clear 24 100.9 16 89 15 *
0:00 NNW 3 Mainly Clear 24 100.9 18 77 14 *
04 July 2015
23:00 W 4 Clear 32 100.8 19 76 15 *
22:00 WNW 5 Mainly Clear 32 100.8 19 69 14 *
21:00 WNW 5 Mainly Sunny 32 100.8 20 69 14 *
20:00 W 4 Mostly Cloudy 32 100.8 22 57 13 25
19:00 WNW 7 Mostly Cloudy 48 100.8 23 53 13 26
18:00 WNW 9 Mostly Cloudy 48 100.8 24 51 13 27
17:00 WNW 12 Mostly Cloudy 48 100.8 24 48 13 27
16:00 WNW 12 Partly Cloudy 48 100.9 24 48 13 27
15:00 WNW 13 Mainly Sunny 48 101.0 24 47 12 27
14:00 WNW 14 Mainly Sunny 48 101.1 24 51 13 26
13:00 WNW 15 Sunny 48 101.1 23 53 13 25
12:00 WNW 16 Sunny 48 101.1 21 56 12 24
11:00 WNW 17 Sunny 48 101.2 21 57 12 23
10:00 WNW 19 Sunny 48 101.2 20 60 12 *

Zoom-in to make a selection

Map of Pacific - Georgia Basin marine weather areas Tsawwassen Ferry Terminal Sentry Shoal - 46131 Halibut Bank - 46146 La Perouse Bank - 46206 Discovery Island Esquimalt Harbour Kelp Reefs Malahat Race Rocks Lightstation Saturna Island Sheringham Point University of Victoria Victoria Gonzales Victoria Int'l Airport Ballenas Islands Campbell River Airport Comox Airport Entrance Island Fanny Island Nanaimo Airport Sisters Islets Estevan Point Tofino Airport Grief Point Powell River Airport Sechelt Point Atkinson Sand Heads Lightstation Vancouver Harbour Vancouver Int'l Airport West Vancouver Port Alberni Howe Sound - Pam Rocks Squamish Airport
Legend:
buoy Buoy
land station Land Station

Pacific - Georgia Basin Area

Another Region

What we are doing

Date modified: